Track COSMOS 2475 (GLONASS) now! COSMOS 2475 (GLONASS) is classified as:
1 37869U 11064C 25313.71661861 .00000015 00000-0 00000-0 0 9991 2 37869 65.1586 80.3852 0025184 247.1294 163.4176 2.13101439109092